NORTHERN QUEENS  -  Heat Advisory Heat Advisory     Air Quality Alert Air Quality Alert        SOUTHERN QUEENS  -  Heat Advisory Heat Advisory     Air Quality Alert Air Quality Alert      

Active alerts

Northern Queens
  Details for Northern Queens Heat Advisory  +1 additional alert
Southern Queens
  Details for Southern Queens Heat Advisory  +1 additional alert


WXM80 ListenWXM80 Stop

You find our weather info also at:

UK Metoffice

WeatherCloud

Weather Underground

Northeastern Weather Network

AWEKAS

Citizen Weather Observer Program (CWOP)

HAMweather, WeatherForYou, PWS Weather


Weather Underground History page Text

Daily Summary for November 10, 2016 Units:  English    Metric   Both
« Previous Day
Next Day »
Daily Weekly Monthly Yearly Custom
  High: Low: Average:
Temperature: 54.3 °F 41.3 °F 48.5 °F
Dew Point: 43.3 °F 31.8 °F 36.4 °F
Humidity: 80 % 43 % 64 %
Wind Speed: 11.0 mph 0.0 mph 3.8 mph
Wind Gust: 19.6 mph - -
Wind:- - SSW
Pressure: 30.00 in 29.66 in -
Precipitation: 0.00 in    
Historical Graphs
 
 
Tabular Data for November 10, 2016
Time Temperature Dew Point Pressure Wind Wind Speed Wind Gust Humidity Rainfall Rate (Hourly)
00:00 49.3 °F 42.7 °F 29.90 in NNE 7.7 mph 12.7 mph 78 % 0.00 in
00:05 49.3 °F 43.1 °F 29.90 in NE 7.2 mph 10.4 mph 79 % 0.00 in
00:10 49.2 °F 43.3 °F 29.91 in North 6.4 mph 11.5 mph 80 % 0.00 in
00:15 49.1 °F 42.9 °F 29.91 in North 7.5 mph 13.8 mph 79 % 0.00 in
00:20 49.0 °F 43.1 °F 29.91 in North 6.0 mph 9.0 mph 80 % 0.00 in
00:25 49.0 °F 43.1 °F 29.91 in NNW 5.0 mph 14.0 mph 80 % 0.00 in
00:30 48.9 °F 42.6 °F 29.92 in North 6.0 mph 13.0 mph 79 % 0.00 in
00:35 48.7 °F 42.5 °F 29.92 in North 9.0 mph 14.0 mph 79 % 0.00 in
00:40 48.6 °F 42.4 °F 29.91 in North 7.0 mph 14.0 mph 79 % 0.00 in
00:45 48.4 °F 41.9 °F 29.91 in North 10.0 mph 14.0 mph 78 % 0.00 in
00:50 48.3 °F 41.8 °F 29.91 in North 3.0 mph 17.0 mph 78 % 0.00 in
00:55 48.2 °F 41.7 °F 29.91 in North 7.0 mph 15.0 mph 78 % 0.00 in
01:00 48.0 °F 41.1 °F 29.91 in NNE 8.5 mph 15.0 mph 77 % 0.00 in
01:05 47.9 °F 41.4 °F 29.91 in NNW 5.8 mph 10.4 mph 78 % 0.00 in
01:10 47.8 °F 41.3 °F 29.92 in NNE 5.9 mph 10.4 mph 78 % 0.00 in
01:16 47.6 °F 40.7 °F 29.91 in NE 8.0 mph 11.5 mph 77 % 0.00 in
01:21 47.4 °F 40.9 °F 29.91 in NNW 4.7 mph 7.0 mph 78 % 0.00 in
01:26 47.3 °F 40.8 °F 29.92 in North 6.1 mph 11.5 mph 78 % 0.00 in
01:31 47.1 °F 40.9 °F 29.92 in NNE 8.2 mph 10.4 mph 79 % 0.00 in
01:36 46.9 °F 40.4 °F 29.92 in North 9.0 mph 15.0 mph 78 % 0.00 in
01:41 46.7 °F 40.2 °F 29.92 in North 6.9 mph 13.8 mph 78 % 0.00 in
01:46 46.5 °F 40.0 °F 29.92 in North 9.0 mph 15.0 mph 78 % 0.00 in
01:51 46.4 °F 40.2 °F 29.92 in NNE 11.0 mph 19.6 mph 79 % 0.00 in
01:56 46.3 °F 40.1 °F 29.92 in NNE 8.7 mph 11.5 mph 79 % 0.00 in
02:01 46.1 °F 39.9 °F 29.93 in North 9.4 mph 15.0 mph 79 % 0.00 in
02:07 46.0 °F 39.5 °F 29.93 in NNE 9.1 mph 15.0 mph 78 % 0.00 in
02:12 45.9 °F 39.8 °F 29.93 in NNE 10.3 mph 15.0 mph 79 % 0.00 in
02:17 45.9 °F 39.8 °F 29.92 in North 7.0 mph 12.7 mph 79 % 0.00 in
02:22 45.8 °F 40.0 °F 29.92 in NNE 8.2 mph 11.5 mph 80 % 0.00 in
02:27 45.8 °F 39.7 °F 29.93 in NE 8.7 mph 11.5 mph 79 % 0.00 in
02:32 45.6 °F 39.1 °F 29.92 in NNE 7.8 mph 11.5 mph 78 % 0.00 in
02:37 45.5 °F 39.4 °F 29.93 in NNE 7.1 mph 11.5 mph 79 % 0.00 in
02:42 45.5 °F 39.0 °F 29.93 in NNE 2.7 mph 11.5 mph 78 % 0.00 in
02:47 45.4 °F 38.9 °F 29.93 in NNE 5.2 mph 8.1 mph 78 % 0.00 in
02:52 45.4 °F 38.9 °F 29.93 in NNE 4.4 mph 10.4 mph 78 % 0.00 in
02:58 45.3 °F 38.8 °F 29.93 in NNE 4.8 mph 9.0 mph 78 % 0.00 in
03:03 45.3 °F 38.8 °F 29.94 in North 4.7 mph 10.0 mph 78 % 0.00 in
03:08 45.2 °F 38.7 °F 29.94 in NE 3.3 mph 10.4 mph 78 % 0.00 in
03:13 45.2 °F 38.7 °F 29.94 in North 5.6 mph 9.2 mph 78 % 0.00 in
03:18 45.1 °F 38.6 °F 29.94 in North 4.1 mph 6.9 mph 78 % 0.00 in
03:23 45.0 °F 38.6 °F 29.94 in North 4.0 mph 5.8 mph 78 % 0.00 in
03:28 45.0 °F 38.6 °F 29.94 in NNW 3.8 mph 10.4 mph 78 % 0.00 in
03:33 44.8 °F 38.0 °F 29.94 in North 5.7 mph 11.5 mph 77 % 0.00 in
03:38 44.8 °F 38.0 °F 29.94 in NNE 6.2 mph 9.2 mph 77 % 0.00 in
03:43 44.7 °F 37.9 °F 29.94 in North 4.8 mph 7.0 mph 77 % 0.00 in
03:49 44.7 °F 38.3 °F 29.94 in North 5.5 mph 8.1 mph 78 % 0.00 in
03:54 44.6 °F 37.8 °F 29.94 in NNE 2.0 mph 5.0 mph 77 % 0.00 in
03:59 44.6 °F 37.8 °F 29.94 in North 4.3 mph 10.4 mph 77 % 0.00 in
04:04 44.5 °F 37.7 °F 29.94 in NNE 3.8 mph 7.0 mph 77 % 0.00 in
04:09 44.4 °F 37.3 °F 29.94 in North 8.4 mph 11.5 mph 76 % 0.00 in
04:14 44.2 °F 37.1 °F 29.95 in NNE 7.2 mph 10.4 mph 76 % 0.00 in
04:19 44.1 °F 37.0 °F 29.95 in NE 8.1 mph 12.0 mph 76 % 0.00 in
04:24 44.0 °F 36.6 °F 29.95 in NNE 7.5 mph 12.7 mph 75 % 0.00 in
04:29 43.8 °F 36.4 °F 29.95 in NNE 7.0 mph 10.4 mph 75 % 0.00 in
04:35 43.7 °F 36.3 °F 29.95 in NNE 6.6 mph 12.7 mph 75 % 0.00 in
04:40 43.6 °F 36.5 °F 29.96 in NNW 8.5 mph 11.5 mph 76 % 0.00 in
04:45 43.5 °F 36.4 °F 29.97 in NNE 8.0 mph 12.0 mph 76 % 0.00 in
04:50 43.4 °F 36.3 °F 29.96 in NNE 6.7 mph 10.4 mph 76 % 0.00 in
04:55 43.3 °F 36.2 °F 29.97 in North 6.3 mph 11.5 mph 76 % 0.00 in
05:00 43.2 °F 36.1 °F 29.96 in NNE 5.2 mph 10.4 mph 76 % 0.00 in
05:05 43.2 °F 36.1 °F 29.96 in NNE 4.4 mph 9.2 mph 76 % 0.00 in
05:10 43.1 °F 36.0 °F 29.97 in NNE 5.0 mph 12.0 mph 76 % 0.00 in
05:15 43.0 °F 36.3 °F 29.96 in NNW 4.8 mph 9.2 mph 77 % 0.00 in
05:20 42.9 °F 36.2 °F 29.96 in NNE 5.0 mph 10.0 mph 77 % 0.00 in
05:25 42.8 °F 36.1 °F 29.96 in NNE 6.0 mph 10.0 mph 77 % 0.00 in
05:30 42.7 °F 35.7 °F 29.97 in NNE 5.1 mph 8.1 mph 76 % 0.00 in
05:35 42.6 °F 35.9 °F 29.97 in NNE 5.0 mph 8.0 mph 77 % 0.00 in
05:40 42.4 °F 35.7 °F 29.97 in NNE 6.0 mph 10.0 mph 77 % 0.00 in
05:45 42.3 °F 35.3 °F 29.97 in NNW 6.8 mph 11.5 mph 76 % 0.00 in
05:50 42.2 °F 34.8 °F 29.98 in North 7.1 mph 11.5 mph 75 % 0.00 in
05:56 42.2 °F 34.8 °F 29.98 in NNE 7.9 mph 11.5 mph 75 % 0.00 in
06:01 42.1 °F 35.1 °F 29.98 in North 5.7 mph 8.1 mph 76 % 0.00 in
06:06 42.1 °F 35.1 °F 29.99 in NNE 6.4 mph 12.7 mph 76 % 0.00 in
06:11 42.0 °F 34.6 °F 29.99 in NNE 7.1 mph 14.0 mph 75 % 0.00 in
06:16 41.9 °F 34.6 °F 29.98 in NNE 6.2 mph 10.4 mph 75 % 0.00 in
06:21 41.9 °F 34.9 °F 29.99 in NE 4.6 mph 6.9 mph 76 % 0.00 in
06:26 41.8 °F 34.8 °F 29.99 in NE 6.1 mph 10.4 mph 76 % 0.00 in
06:31 41.7 °F 34.7 °F 29.99 in NNE 7.0 mph 11.5 mph 76 % 0.00 in
06:36 41.6 °F 34.9 °F 29.99 in NE 4.8 mph 9.2 mph 77 % 0.00 in
06:46 41.5 °F 34.8 °F 29.99 in North 5.4 mph 9.2 mph 77 % 0.00 in
06:52 41.4 °F 34.7 °F 29.99 in NNE 6.6 mph 9.2 mph 77 % 0.00 in
06:57 41.4 °F 35.1 °F 29.99 in NNW 2.9 mph 6.0 mph 78 % 0.00 in
07:02 41.4 °F 35.1 °F 29.99 in NNE 5.9 mph 10.0 mph 78 % 0.00 in
07:07 41.4 °F 35.1 °F 29.99 in North 3.3 mph 4.6 mph 78 % 0.00 in
07:12 41.3 °F 35.0 °F 29.99 in North 4.7 mph 8.1 mph 78 % 0.00 in
07:17 41.3 °F 35.0 °F 29.99 in NNW 3.8 mph 8.1 mph 78 % 0.00 in
07:22 41.3 °F 35.0 °F 29.99 in North 5.3 mph 8.1 mph 78 % 0.00 in
07:27 41.3 °F 35.3 °F 29.99 in North 5.1 mph 9.0 mph 79 % 0.00 in
07:32 41.4 °F 35.1 °F 30.00 in NNW 2.4 mph 5.8 mph 78 % 0.00 in
07:37 41.4 °F 35.1 °F 30.00 in NNW 3.3 mph 6.9 mph 78 % 0.00 in
07:42 41.5 °F 35.2 °F 30.00 in NNE 7.1 mph 9.2 mph 78 % 0.00 in
07:48 41.6 °F 35.2 °F 30.00 in NE 4.3 mph 10.4 mph 78 % 0.00 in
07:53 41.7 °F 35.0 °F 30.00 in North 4.6 mph 10.4 mph 77 % 0.00 in
07:58 41.8 °F 35.1 °F 30.00 in NNW 3.7 mph 11.5 mph 77 % 0.00 in
08:03 41.9 °F 34.9 °F 30.00 in NNE 6.8 mph 11.5 mph 76 % 0.00 in
08:08 41.9 °F 34.9 °F 30.00 in NNE 5.7 mph 9.2 mph 76 % 0.00 in
08:13 42.0 °F 34.3 °F 30.00 in NNW 3.9 mph 10.4 mph 74 % 0.00 in
08:18 42.0 °F 34.3 °F 30.00 in NNE 6.5 mph 6.5 mph 74 % 0.00 in
08:28 42.1 °F 34.4 °F 30.00 in NE 4.7 mph 8.0 mph 74 % 0.00 in
08:38 42.6 °F 34.9 °F 30.00 in NNE 3.3 mph 6.9 mph 74 % 0.00 in
08:43 43.2 °F 35.1 °F 30.00 in North 4.1 mph 5.8 mph 73 % 0.00 in
08:48 43.7 °F 35.3 °F 30.00 in NNW 2.8 mph 6.9 mph 72 % 0.00 in
08:54 44.2 °F 35.4 °F 30.00 in North 4.4 mph 6.9 mph 71 % 0.00 in
08:59 44.9 °F 36.1 °F 30.00 in NNE 5.0 mph 6.9 mph 71 % 0.00 in
09:04 45.7 °F 36.1 °F 30.00 in North 3.7 mph 8.1 mph 69 % 0.00 in
09:09 46.3 °F 36.3 °F 30.00 in WNW 0.9 mph 5.0 mph 68 % 0.00 in
09:14 46.4 °F 35.7 °F 30.00 in NW 1.6 mph 4.6 mph 66 % 0.00 in
09:19 46.7 °F 35.9 °F 30.00 in NW 2.9 mph 7.0 mph 66 % 0.00 in
09:24 47.1 °F 36.3 °F 30.00 in WNW 5.0 mph 8.1 mph 66 % 0.00 in
09:29 47.4 °F 35.4 °F 30.00 in NW 1.9 mph 4.6 mph 63 % 0.00 in
09:34 47.8 °F 36.2 °F 30.00 in North 1.8 mph 4.6 mph 64 % 0.00 in
09:39 48.5 °F 37.3 °F 30.00 in North 0.8 mph 3.5 mph 65 % 0.00 in
09:45 49.1 °F 37.0 °F 30.00 in North 3.1 mph 5.8 mph 63 % 0.00 in
09:50 49.6 °F 37.1 °F 30.00 in WNW 3.0 mph 7.0 mph 62 % 0.00 in
09:55 50.1 °F 37.6 °F 30.00 in Calm   2.3 mph 62 % 0.00 in
10:00 50.3 °F 36.5 °F 29.99 in North 3.5 mph 5.8 mph 59 % 0.00 in
10:05 50.6 °F 36.4 °F 29.99 in NNW 3.7 mph 4.6 mph 58 % 0.00 in
10:10 50.6 °F 35.9 °F 30.00 in NW 1.3 mph 3.5 mph 57 % 0.00 in
10:15 50.8 °F 37.0 °F 30.00 in NW 2.8 mph 5.0 mph 59 % 0.00 in
10:20 50.8 °F 35.7 °F 30.00 in NNE 2.7 mph 4.6 mph 56 % 0.00 in
10:25 51.0 °F 36.3 °F 29.99 in NNW 2.0 mph 6.0 mph 57 % 0.00 in
10:30 51.2 °F 36.0 °F 29.99 in North 3.0 mph 6.0 mph 56 % 0.00 in
10:35 51.3 °F 35.2 °F 29.98 in WNW 2.0 mph 3.5 mph 54 % 0.00 in
10:40 51.4 °F 35.8 °F 29.99 in NW 2.0 mph 4.0 mph 55 % 0.00 in
10:45 51.5 °F 36.3 °F 29.99 in NNW 1.0 mph 5.0 mph 56 % 0.00 in
10:50 51.5 °F 35.9 °F 29.98 in North 4.4 mph 5.8 mph 55 % 0.00 in
10:55 51.6 °F 35.9 °F 29.98 in North 5.0 mph 8.0 mph 55 % 0.00 in
11:00 51.7 °F 35.1 °F 29.98 in WNW 3.9 mph 3.9 mph 53 % 0.00 in
11:05 51.7 °F 34.1 °F 29.97 in WNW 4.0 mph 6.9 mph 51 % 0.00 in
11:10 51.5 °F 33.5 °F 29.96 in WNW 1.7 mph 3.5 mph 50 % 0.00 in
11:15 51.3 °F 33.3 °F 29.96 in WNW 3.2 mph 7.0 mph 50 % 0.00 in
11:21 51.1 °F 33.1 °F 29.96 in WSW 3.6 mph 6.0 mph 50 % 0.00 in
11:26 50.8 °F 32.8 °F 29.96 in WNW 1.5 mph 5.8 mph 50 % 0.00 in
11:31 50.5 °F 32.0 °F 29.95 in West 5.1 mph 8.1 mph 49 % 0.00 in
11:36 50.3 °F 32.4 °F 29.95 in North 1.2 mph 2.0 mph 50 % 0.00 in
11:41 50.3 °F 32.8 °F 29.95 in WNW 1.8 mph 3.5 mph 51 % 0.00 in
11:46 50.2 °F 32.8 °F 29.94 in WSW 1.5 mph 3.0 mph 51 % 0.00 in
11:51 50.2 °F 32.8 °F 29.94 in WNW 0.3 mph 2.3 mph 51 % 0.00 in
11:56 50.3 °F 32.4 °F 29.93 in WSW 3.8 mph 5.0 mph 50 % 0.00 in
12:01 50.3 °F 32.4 °F 29.93 in West 3.4 mph 6.9 mph 50 % 0.00 in
12:06 50.5 °F 33.0 °F 29.93 in WNW 4.1 mph 5.8 mph 51 % 0.00 in
12:12 50.6 °F 32.1 °F 29.93 in SW 4.2 mph 6.9 mph 49 % 0.00 in
12:17 50.6 °F 32.6 °F 29.93 in SW 3.4 mph 6.0 mph 50 % 0.00 in
12:22 50.7 °F 32.2 °F 29.93 in WSW 3.8 mph 5.0 mph 49 % 0.00 in
12:27 50.8 °F 32.8 °F 29.93 in SW 5.2 mph 8.1 mph 50 % 0.00 in
12:32 50.9 °F 33.9 °F 29.92 in WSW 3.4 mph 10.4 mph 52 % 0.00 in
12:37 51.0 °F 34.5 °F 29.92 in West 3.2 mph 5.0 mph 53 % 0.00 in
12:42 51.2 °F 34.2 °F 29.92 in SW 6.7 mph 6.7 mph 52 % 0.00 in
12:47 51.3 °F 33.8 °F 29.92 in WNW 6.0 mph 10.4 mph 51 % 0.00 in
12:52 51.5 °F 33.5 °F 29.91 in SW 4.6 mph 8.1 mph 50 % 0.00 in
12:57 51.8 °F 34.2 °F 29.91 in WNW 0.7 mph 4.0 mph 51 % 0.00 in
13:03 52.2 °F 33.6 °F 29.91 in NW 5.8 mph 10.4 mph 49 % 0.00 in
13:08 52.5 °F 34.4 °F 29.91 in SSW 4.5 mph 7.0 mph 50 % 0.00 in
13:13 52.7 °F 34.1 °F 29.91 in WSW 5.3 mph 9.2 mph 49 % 0.00 in
13:18 52.8 °F 34.2 °F 29.90 in SW 3.6 mph 8.1 mph 49 % 0.00 in
13:23 52.8 °F 34.2 °F 29.89 in WSW 1.2 mph 5.8 mph 49 % 0.00 in
13:28 53.1 °F 34.4 °F 29.89 in West 0.8 mph 6.9 mph 49 % 0.00 in
13:33 53.3 °F 34.6 °F 29.89 in WSW 4.7 mph 9.2 mph 49 % 0.00 in
13:38 53.5 °F 33.2 °F 29.89 in SW 5.5 mph 10.0 mph 46 % 0.00 in
13:43 53.7 °F 33.4 °F 29.89 in West 4.9 mph 9.2 mph 46 % 0.00 in
13:48 53.9 °F 33.6 °F 29.88 in SW 2.0 mph 5.0 mph 46 % 0.00 in
13:54 54.1 °F 33.2 °F 29.88 in WSW 5.1 mph 11.0 mph 45 % 0.00 in
13:59 54.2 °F 32.7 °F 29.88 in SW 5.5 mph 10.4 mph 44 % 0.00 in
14:04 54.3 °F 32.8 °F 29.88 in SW 2.8 mph 8.1 mph 44 % 0.00 in
14:09 54.3 °F 32.8 °F 29.88 in WSW 7.7 mph 12.7 mph 44 % 0.00 in
14:14 54.1 °F 32.6 °F 29.88 in WSW 4.3 mph 5.0 mph 44 % 0.00 in
14:19 54.0 °F 32.6 °F 29.87 in West 3.5 mph 4.6 mph 44 % 0.00 in
14:24 54.0 °F 33.1 °F 29.86 in SSW 3.7 mph 5.0 mph 45 % 0.00 in
14:29 53.9 °F 33.0 °F 29.86 in SSW 4.0 mph 9.2 mph 45 % 0.00 in
14:34 53.9 °F 32.5 °F 29.86 in SW 3.9 mph 8.1 mph 44 % 0.00 in
14:39 53.9 °F 32.5 °F 29.86 in WSW 4.4 mph 9.2 mph 44 % 0.00 in
14:44 53.8 °F 31.8 °F 29.86 in West 2.6 mph 4.6 mph 43 % 0.00 in
14:55 53.7 °F 32.8 °F 29.86 in SW 4.2 mph 9.2 mph 45 % 0.00 in
15:00 53.6 °F 33.3 °F 29.85 in WSW 3.8 mph 5.0 mph 46 % 0.00 in
15:05 53.6 °F 32.8 °F 29.86 in West 6.0 mph 11.0 mph 45 % 0.00 in
15:10 53.5 °F 32.7 °F 29.85 in WNW 1.7 mph 3.0 mph 45 % 0.00 in
15:15 53.5 °F 33.2 °F 29.85 in SW 3.2 mph 4.6 mph 46 % 0.00 in
15:20 53.5 °F 32.7 °F 29.85 in WSW 3.2 mph 3.5 mph 45 % 0.00 in
15:25 53.5 °F 33.2 °F 29.85 in WSW 2.5 mph 5.8 mph 46 % 0.00 in
15:30 53.4 °F 33.1 °F 29.86 in WSW 1.0 mph 7.0 mph 46 % 0.00 in
15:35 53.4 °F 33.7 °F 29.85 in WSW 1.0 mph 5.0 mph 47 % 0.00 in
15:40 53.3 °F 33.0 °F 29.85 in SW 1.7 mph 2.0 mph 46 % 0.00 in
15:45 53.3 °F 34.1 °F 29.84 in SW 3.0 mph 8.0 mph 48 % 0.00 in
15:50 53.2 °F 33.5 °F 29.84 in WSW 2.0 mph 4.0 mph 47 % 0.00 in
15:55 53.2 °F 34.0 °F 29.84 in SW 1.4 mph 3.5 mph 48 % 0.00 in
16:00 53.1 °F 33.9 °F 29.84 in Calm     48 % 0.00 in
16:05 53.0 °F 33.8 °F 29.84 in SW 0.1 mph 1.2 mph 48 % 0.00 in
16:10 52.9 °F 34.2 °F 29.84 in SW 0.3 mph 1.2 mph 49 % 0.00 in
16:16 52.7 °F 34.1 °F 29.83 in WSW 0.3 mph 3.5 mph 49 % 0.00 in
16:21 52.6 °F 34.0 °F 29.83 in Calm     49 % 0.00 in
16:26 52.4 °F 33.8 °F 29.83 in Calm     49 % 0.00 in
16:36 52.0 °F 34.4 °F 29.83 in Calm     51 % 0.00 in
16:41 51.8 °F 34.2 °F 29.83 in Calm     51 % 0.00 in
16:46 51.6 °F 34.0 °F 29.83 in Calm     51 % 0.00 in
16:51 51.4 °F 33.9 °F 29.83 in WSW 0.6 mph 1.2 mph 51 % 0.00 in
16:56 51.2 °F 34.2 °F 29.82 in Calm   1.2 mph 52 % 0.00 in
17:01 50.9 °F 33.9 °F 29.82 in Calm     52 % 0.00 in
17:07 50.6 °F 33.6 °F 29.81 in WSW 0.4 mph 1.2 mph 52 % 0.00 in
17:12 50.5 °F 33.5 °F 29.81 in Calm   1.2 mph 52 % 0.00 in
17:17 50.2 °F 33.7 °F 29.81 in Calm   1.2 mph 53 % 0.00 in
17:22 50.1 °F 33.6 °F 29.82 in WSW 0.1 mph 1.2 mph 53 % 0.00 in
17:27 49.9 °F 33.9 °F 29.82 in SW 0.5 mph 2.3 mph 54 % 0.00 in
17:32 49.7 °F 33.7 °F 29.82 in SW 1.9 mph 2.3 mph 54 % 0.00 in
17:37 49.6 °F 33.6 °F 29.82 in SW 0.5 mph 1.2 mph 54 % 0.00 in
17:42 49.5 °F 33.5 °F 29.81 in SSW 1.3 mph 3.5 mph 54 % 0.00 in
17:47 49.5 °F 33.5 °F 29.81 in SSW 0.5 mph 2.3 mph 54 % 0.00 in
17:52 49.5 °F 33.5 °F 29.81 in SSW 1.0 mph 2.3 mph 54 % 0.00 in
17:58 49.5 °F 33.5 °F 29.81 in SW 0.8 mph 2.3 mph 54 % 0.00 in
18:03 49.5 °F 34.0 °F 29.80 in SSW 1.2 mph 3.5 mph 55 % 0.00 in
18:08 49.6 °F 34.1 °F 29.80 in SW 0.8 mph 3.5 mph 55 % 0.00 in
18:13 49.6 °F 34.5 °F 29.80 in SW 0.3 mph 2.3 mph 56 % 0.00 in
18:18 49.7 °F 35.1 °F 29.80 in SW 0.7 mph 2.3 mph 57 % 0.00 in
18:23 49.8 °F 35.2 °F 29.80 in SW 2.6 mph 5.8 mph 57 % 0.00 in
18:28 49.9 °F 35.7 °F 29.80 in SW 2.9 mph 6.0 mph 58 % 0.00 in
18:33 50.0 °F 35.8 °F 29.80 in SSW 4.5 mph 8.1 mph 58 % 0.00 in
18:38 50.2 °F 36.0 °F 29.79 in WSW 1.5 mph 3.5 mph 58 % 0.00 in
18:43 50.4 °F 36.2 °F 29.79 in WSW 1.9 mph 3.5 mph 58 % 0.00 in
18:49 50.5 °F 36.3 °F 29.79 in WSW 3.8 mph 5.8 mph 58 % 0.00 in
18:54 50.7 °F 36.5 °F 29.78 in SW 1.2 mph 3.5 mph 58 % 0.00 in
18:59 50.8 °F 36.5 °F 29.78 in WSW 1.4 mph 5.8 mph 58 % 0.00 in
19:04 50.9 °F 36.6 °F 29.78 in WSW 2.4 mph 4.6 mph 58 % 0.00 in
19:09 51.0 °F 36.3 °F 29.78 in SW 3.5 mph 8.1 mph 57 % 0.00 in
19:14 51.0 °F 36.3 °F 29.78 in WSW 1.8 mph 3.5 mph 57 % 0.00 in
19:19 51.1 °F 36.4 °F 29.78 in SSW 2.8 mph 4.6 mph 57 % 0.00 in
19:24 51.2 °F 36.9 °F 29.78 in South 2.0 mph 4.6 mph 58 % 0.00 in
19:29 51.2 °F 36.5 °F 29.77 in SW 2.2 mph 8.1 mph 57 % 0.00 in
19:34 51.3 °F 36.6 °F 29.77 in SSW 2.6 mph 4.6 mph 57 % 0.00 in
19:40 51.3 °F 36.6 °F 29.77 in SW 4.4 mph 8.1 mph 57 % 0.00 in
19:50 51.3 °F 36.6 °F 29.77 in SW 3.9 mph 8.0 mph 57 % 0.00 in
19:55 51.3 °F 36.6 °F 29.77 in SW 4.3 mph 6.9 mph 57 % 0.00 in
20:00 51.3 °F 36.6 °F 29.77 in SSW 4.1 mph 5.8 mph 57 % 0.00 in
20:05 51.3 °F 37.0 °F 29.77 in SW 2.7 mph 5.8 mph 58 % 0.00 in
20:10 51.3 °F 37.0 °F 29.77 in SW 3.0 mph 6.0 mph 58 % 0.00 in
20:15 51.3 °F 37.4 °F 29.76 in SSW 5.0 mph 7.0 mph 59 % 0.00 in
20:20 51.2 °F 37.4 °F 29.76 in SSW 2.0 mph 6.0 mph 59 % 0.00 in
20:25 51.2 °F 37.4 °F 29.76 in SSW 1.0 mph 3.0 mph 59 % 0.00 in
20:30 51.1 °F 37.7 °F 29.76 in SW 1.0 mph 4.0 mph 60 % 0.00 in
20:35 51.0 °F 37.6 °F 29.75 in WSW 1.0 mph 3.0 mph 60 % 0.00 in
20:40 50.9 °F 37.9 °F 29.75 in WSW 1.0 mph 5.0 mph 61 % 0.00 in
20:45 50.8 °F 37.8 °F 29.75 in SW 1.0 mph 3.5 mph 61 % 0.00 in
20:50 50.7 °F 38.1 °F 29.75 in SW 3.0 mph 8.0 mph 62 % 0.00 in
20:55 50.5 °F 38.4 °F 29.75 in SW 2.0 mph 7.0 mph 63 % 0.00 in
21:00 50.5 °F 38.4 °F 29.75 in WSW 1.1 mph 3.5 mph 63 % 0.00 in
21:05 50.4 °F 38.7 °F 29.74 in SW 2.0 mph 7.0 mph 64 % 0.00 in
21:10 50.3 °F 39.0 °F 29.73 in SW 2.0 mph 3.0 mph 65 % 0.00 in
21:15 50.2 °F 38.9 °F 29.73 in SSW 1.9 mph 3.5 mph 65 % 0.00 in
21:20 50.2 °F 38.9 °F 29.73 in SW 2.0 mph 5.0 mph 65 % 0.00 in
21:25 50.1 °F 39.2 °F 29.72 in SW 2.0 mph 5.0 mph 66 % 0.00 in
21:30 50.1 °F 39.6 °F 29.72 in SSW 2.8 mph 4.6 mph 67 % 0.00 in
21:35 50.0 °F 39.5 °F 29.72 in SSW 2.0 mph 8.0 mph 67 % 0.00 in
21:40 50.0 °F 39.5 °F 29.72 in SW 2.0 mph 7.0 mph 67 % 0.00 in
21:45 50.0 °F 39.8 °F 29.71 in WSW 2.2 mph 3.5 mph 68 % 0.00 in
21:50 50.0 °F 39.8 °F 29.71 in SW 2.0 mph 5.0 mph 68 % 0.00 in
21:55 50.0 °F 39.8 °F 29.71 in SSW 2.0 mph 7.0 mph 68 % 0.00 in
22:00 49.9 °F 39.8 °F 29.71 in SW 3.6 mph 4.0 mph 68 % 0.00 in
22:05 49.9 °F 39.8 °F 29.70 in SW 2.0 mph 8.0 mph 68 % 0.00 in
22:10 49.8 °F 40.0 °F 29.70 in SSW 1.0 mph 4.0 mph 69 % 0.00 in
22:15 49.7 °F 39.6 °F 29.70 in SW 0.1 mph 2.3 mph 68 % 0.00 in
22:20 49.7 °F 39.9 °F 29.69 in SW 1.0 mph 5.0 mph 69 % 0.00 in
22:25 49.5 °F 39.7 °F 29.69 in SW 2.0 mph 5.0 mph 69 % 0.00 in
22:30 49.4 °F 40.0 °F 29.69 in South 3.1 mph 3.5 mph 70 % 0.00 in
22:35 49.3 °F 39.9 °F 29.69 in SW 2.0 mph 8.0 mph 70 % 0.00 in
22:40 49.2 °F 39.8 °F 29.68 in SW 1.0 mph 7.0 mph 70 % 0.00 in
22:45 49.3 °F 39.9 °F 29.68 in SW 2.3 mph 4.6 mph 70 % 0.00 in
22:50 49.3 °F 40.3 °F 29.68 in SW 6.0 mph 10.0 mph 71 % 0.00 in
22:55 49.3 °F 40.3 °F 29.68 in SW 2.0 mph 7.0 mph 71 % 0.00 in
23:00 49.4 °F 40.4 °F 29.68 in SW 3.1 mph 8.1 mph 71 % 0.00 in
23:05 49.4 °F 40.0 °F 29.67 in SW 1.0 mph 8.0 mph 70 % 0.00 in
23:10 49.4 °F 40.4 °F 29.67 in SW 3.0 mph 7.0 mph 71 % 0.00 in
23:15 49.4 °F 40.0 °F 29.67 in SSW 3.1 mph 5.8 mph 70 % 0.00 in
23:20 49.4 °F 40.0 °F 29.67 in SW 2.0 mph 7.0 mph 70 % 0.00 in
23:25 49.4 °F 40.0 °F 29.67 in SW 1.0 mph 10.0 mph 70 % 0.00 in
23:30 49.4 °F 40.0 °F 29.67 in SW 5.0 mph 9.0 mph 70 % 0.00 in
23:35 49.4 °F 40.0 °F 29.67 in SW 3.0 mph 7.0 mph 70 % 0.00 in
23:40 49.5 °F 39.7 °F 29.67 in SW 3.0 mph 8.0 mph 69 % 0.00 in
23:45 49.5 °F 39.7 °F 29.66 in WSW 4.1 mph 6.0 mph 69 % 0.00 in
23:50 49.5 °F 39.7 °F 29.66 in WSW 1.0 mph 4.0 mph 69 % 0.00 in
23:55 49.5 °F 39.7 °F 29.66 in WSW 2.0 mph 6.0 mph 69 % 0.00 in
Crab Meadow Weather
Compliments of Weather Underground - 3 mb

Script developed by  Jim McMurry - jmcmurry@mwt.net Adapted for the template by  Wim van der Kuil - Leuven-Template.eu

Extremes: Currently the driest state is Nevada with an annual rainfall of only nine inches.